Location: Unspecified
(0.0000°N, 0.0000°E)
Time: 07:37:14
(UTC+00:00)

Courier 1B Rocket - Pass Details

Date: 20 December 2018
Orbit: 920 x 1202 km, 28.2° (Epoch: 18 March)

Event Time Altitude Azimuth Distance (km) Brightness Sun altitude
Rises 18:15:34 0° 255° (WSW) 4,083 10.7 -4.1°
Reaches altitude 10° 18:20:06 10° 232° (SW) 3,132 9.2 -5.1°
Maximum altitude 18:24:00 14° 201° (SSW) 2,808 8.1 -6.0°
Drops below altitude 10° 18:27:54 10° 171° (S) 3,113 7.8 -6.9°
Sets 18:32:25 0° 147° (SSE) 4,042 8.1 -8.0°
